#timestamp,LO_Frequency,Hit,StdDev 
1585857615.1,286046996.9,N
1585857616.0,286046996.9,N
1585857635.8,286046998.8,N
1585857655.6,286047001.9,N
1585857675.5,286047000.2,N
1585857695.3,286047002.3,N
1585857715.2,286047002.8,N
1585857735.9,286047001.7,N
1585857755.7,286047003.5,N
1585857775.6,286047002.1,N
1585857795.4,286047004.3,N
1585857815.2,286047004.0,N
1585857835.1,286047002.5,N
1585857836.0,286047002.5,N
1585857855.8,286046999.9,N
1585857875.7,286047000.4,N
1585857895.5,286047003.2,N
1585857915.3,286047001.9,N
1585857935.2,286047001.6,N
1585857955.0,286047000.0,N
1585857955.9,286047000.0,N
1585857975.8,286047000.6,N
1585857995.6,286047002.8,N
1585858015.4,286047000.1,N
1585858035.3,286046999.7,N
1585858055.1,286047002.3,N
1585858075.8,286046998.4,N
1585858095.7,286046998.9,N
1585858115.5,286047001.0,N
1585858135.4,286046999.8,N
1585858155.2,286047000.8,N
1585858175.0,286046998.5,N
1585858175.9,286046998.5,N
1585858195.8,286046998.2,N
1585858215.6,286047001.0,N
1585858235.5,286047000.0,N
1585858255.3,286046998.8,N
1585858275.1,286046996.5,N
1585858295.9,286046999.1,N
1585858315.7,286046998.1,N
1585858335.5,286047000.0,N
1585858355.4,286047001.9,N
1585858375.2,286047001.4,N
1585858395.1,286047000.0,N
1585858396.0,286047000.0,N
1585858415.8,286047000.7,N
1585858435.6,286046999.7,N
1585858455.5,286047000.1,N
1585858475.3,286046996.7,N
1585858495.2,286046998.9,N
1585858515.9,286047001.2,N
1585858535.7,286046998.3,N
1585858555.6,286046998.8,N
1585858575.4,286046998.5,N
1585858595.2,286047000.0,N
1585858615.1,286046997.1,N
1585858616.0,286046997.1,N
1585858635.8,286046996.6,N
1585858655.7,286047000.8,N
1585858675.5,286047001.0,N
1585858695.3,286047002.3,N
1585858715.2,286047003.9,N
1585858735.0,286047003.4,N
1585858735.9,286047003.4,N
1585858755.8,286047003.0,N
1585858775.6,286047005.6,N
1585858795.4,286047003.0,N
1585858815.3,286047003.8,N
1585858835.1,286047001.9,N
1585858855.8,286047003.7,N
1585858875.7,286047005.8,N
1585858895.5,286047003.7,N
1585858915.4,286047003.3,N
1585858935.2,286047004.2,N
1585858955.0,286047001.7,N
1585858955.9,286047001.7,N
1585858975.8,286047002.0,N
1585858995.6,286047001.5,N
1585859015.5,286047001.8,N
1585859035.3,286047004.4,N
1585859055.1,286047003.7,N
1585859075.9,286047004.3,N
1585859095.7,286047003.1,N
1585859115.5,286047002.0,N
1585859135.4,286047002.0,N
1585859155.2,286047002.8,N
1585859175.1,286047004.0,N
1585859176.0,286047004.0,N
1585859195.8,286047001.4,N
1585859215.7,286047004.4,Y
1585859235.5,286047001.2,P
1585859255.3,286047000.8,N
1585859275.2,286046999.7,N
1585859295.0,286047000.9,N
1585859295.9,286047000.9,N
1585859315.8,286046999.3,N
1585859335.6,286046999.6,N
1585859355.4,286046996.6,Y
1585859375.3,286046993.6,P
1585859395.1,286046994.0,N
1585859415.9,286046995.2,N
1585859435.7,286046995.9,N
1585859455.5,286046995.6,N
1585859475.4,286046996.0,N
1585859495.2,286046995.8,N
1585859515.0,286046995.4,N
1585859515.9,286046995.4,N
1585859535.8,286046993.6,Y
1585859555.6,286047000.8,P
1585859575.5,286046998.7,N
1585859595.3,286047000.0,N
1585859615.1,286047001.6,N
1585859635.9,286047000.3,N
1585859655.7,286047000.6,N
1585859675.6,286046998.1,N
1585859695.4,286046998.1,N
1585859715.2,286047001.1,N
1585859735.1,286046998.2,N
1585859736.0,286046998.2,N
1585859755.8,286046998.4,N
1585859775.6,286046998.4,N
1585859795.5,286046998.3,N
1585859815.3,286046999.3,N
1585859835.2,286046999.6,N
1585859855.9,286046996.7,N
1585859875.7,286046996.6,N
1585859895.6,286046997.0,N
1585859915.4,286046997.4,N
1585859935.2,286046997.6,N
1585859955.1,286046998.0,N
1585859956.0,286046998.0,N
1585859975.8,286046997.2,N
1585859995.7,286046997.5,N
1585860015.5,286046994.9,Y
1585860035.3,286047011.9,P
1585860055.2,286046996.6,N
1585860075.0,286046995.3,N
1585860075.9,286046995.3,N
1585860095.8,286046996.2,N
1585860115.6,286046996.4,N
1585860135.4,286046999.4,N
1585860155.3,286046999.6,N
1585860175.1,286046998.0,N
1585860195.9,286046997.6,N
1585860215.7,286046996.2,N
1585860235.5,286046993.6,N
1585860255.4,286046993.7,N
1585860275.2,286046996.0,N
1585860295.0,286046995.9,N
1585860295.9,286046995.9,N
1585860315.8,286046993.3,N
1585860335.6,286046994.8,N
1585860355.5,286046992.0,N
1585860375.3,286046994.7,N
1585860395.1,286046994.3,N
1585860415.9,286046990.4,N
1585860435.7,286046993.2,N
1585860455.6,286046991.0,N
1585860475.4,286046990.3,N
1585860495.2,286046990.2,N
1585860515.1,286046990.3,N
1585860516.0,286046990.3,N
1585860535.8,286046993.1,N
1585860555.7,286046992.8,N
1585860575.5,286046992.8,N
1585860595.3,286046990.7,Y
1585860615.2,286046997.2,P
1585860635.0,286046997.4,N
1585860635.9,286046997.4,N
1585860655.8,286046994.9,Y
1585860675.6,286047000.4,P
1585860695.4,286047000.8,N
1585860715.3,286046998.5,N
1585860735.1,286046998.3,N
1585860755.8,286046999.3,N
1585860775.7,286046999.3,N
1585860795.5,286046998.6,N
1585860815.4,286046996.6,N
1585860835.2,286046999.5,N
1585860855.0,286046997.8,N
1585860855.9,286046997.8,N
1585860875.8,286046999.5,N
1585860895.6,286046999.3,N
1585860915.5,286046998.2,N
1585860935.3,286047000.7,N
1585860955.1,286047002.0,N
1585860975.9,286046999.8,N
1585860995.7,286047000.5,N
1585861015.6,286046999.7,N
1585861035.4,286047004.4,Y
1585861055.2,286047004.0,P
1585861075.1,286047002.5,N
1585861076.0,286047002.5,N
1585861095.8,286047002.5,N
1585861115.7,286047002.3,N
1585861135.5,286047002.4,N
1585861155.3,286047002.7,N
1585861175.2,286046999.7,N
1585861195.0,286047000.5,N
1585861195.9,286047000.5,N
